This is the latest recevied weather packets stored in our database for station/object K9UO. If no packets are shown the sender has not sent any weather packets the latest 10 day(s).
| Time | Temp. | Humidity | Pressure | Rain* | Wind** | Luminosity | Snow |
|---|---|---|---|---|---|---|---|
| 1777076132 | 17.22° C | 1% | 1006.7 hPa | 2.54 mm | - | - | - |
| 1777075228 | 17.22° C | 1% | 1006.7 hPa | 3.05 mm | - | - | - |
| 1777074324 | 17.22° C | 1% | 1006.4 hPa | 5.59 mm | - | - | - |
| 1777073447 | 17.22° C | 1% | 1006.4 hPa | 4.83 mm | - | - | - |
| 1777072517 | 17.22° C | 1% | 1006.2 hPa | 3.56 mm | - | - | - |
| 1777071612 | 17.78° C | 1% | 1006 hPa | 2.79 mm | - | - | - |
| 1777070708 | 17.78° C | 1% | 1005.5 hPa | 0.51 mm | - | - | - |
| 1777069801 | 17.78° C | 1% | 1005.3 hPa | 0.76 mm | - | - | - |
| 1777068957 | 17.78° C | 1% | 1005.1 hPa | 0.76 mm | - | - | - |
| 1777068053 | 17.22° C | 1% | 1005 hPa | 1.02 mm | - | - | - |
| 1777067149 | 17.22° C | 1% | 1005.4 hPa | 0.51 mm | - | - | - |
| 1777066245 | 17.22° C | 1% | 1005.8 hPa | 1.78 mm | - | - | - |
| 1777065339 | 17.22° C | 1% | 1005 hPa | 1.52 mm | - | - | - |
| 1777064438 | 18.33° C | 1% | 1005 hPa | 1.52 mm | - | - | - |
| 1777063531 | 21.11° C | 24% | 1005 hPa | 1.52 mm | - | - | - |
| 1777062629 | 21.67° C | 46% | 1004.4 hPa | 0 mm | - | - | - |
| 1777061734 | 22.22° C | 44% | 1004.2 hPa | 0 mm | - | - | - |
| 1777060838 | 23.89° C | 58% | 1004.3 hPa | 0 mm | - | - | - |
| 1777059985 | 25.56° C | 48% | 1004.5 hPa | 0 mm | - | - | - |
| 1777059024 | 26.11° C | 47% | 1004.5 hPa | 0 mm | - | - | - |
| 1777058123 | 26.11° C | 47% | 1004.8 hPa | 0 mm | - | - | - |
| 1777057220 | 26.11° C | 48% | 1004.9 hPa | 0 mm | - | - | - |
| 1777056329 | 26.11° C | 48% | 1005.1 hPa | 0 mm | - | - | - |
| 1777055420 | 25.56° C | 51% | 1005.3 hPa | 0 mm | - | - | - |
| 1777054516 | 26.11° C | 46% | 1005.6 hPa | 0 mm | - | - | - |
* Rain latest hour (hover to see other rain measurements)
** Current wind speed in m/s (hover to see current wind gust speed)